Inquirer Daily News

Weather

Get conditions and forecasts for any City, State, ZIP code or Country:  
Northeast Philadelphia, PA
on Friday, November 23, 2012

Friday
Previous Day Next Day
Daily Summary
 ActualAverage (KTTN)Record (KTTN)
Temperature
Mean Temperature °F 43°F  
Max Temperature 57°F 52°F 72°F (1931)
Min Temperature 30°F 35°F 16°F (1880)
Degree Days
Heating Degree Days 22 22  
Month to date heating degree days 418  
Since 1 July heating degree days 815  
Cooling Degree Days 0 0  
Month to date cooling degree days 0  
Year to date cooling degree days 965  
Moisture
Dew Point 35°F   
Average Humidity 80    
Maximum Humidity 100    
Minimum Humidity 45    
Precipitation
Precipitation 0.00 in 0.11 in 1.70 in (1875)
Month to date precipitation 2.42  
Year to date precipitation 41.85  
Wind
Wind Speed 2 mph   
Max Wind Speed 14 mph   
Max Gust Speed 23 mph   
Visibility 6 miles   
Events Fog , Rain   

Key: T is trace of precipitation, MM is missing value
Source: NWS Daily Summary
Time(EST)TemperatureDew PointHumidity Pressure Visibility Wind DirectionWind SpeedGust SpeedPrecipitationEvents Conditions
12:54 AM 35.1°F 32.0°F 89% 30.15 in 7.0 miles Calm Calm - N/A   Clear
1:54 AM 36.0°F 33.1°F 89% 30.15 in 6.0 miles Calm Calm - N/A   Clear
2:54 AM 33.1°F 30.9°F 92% 30.12 in 6.0 miles Calm Calm - N/A   Clear
3:54 AM 32.0°F 28.9°F 88% 30.12 in 8.0 miles Calm Calm - N/A   Clear
4:54 AM 32.0°F 28.9°F 88% 30.11 in 4.0 miles Calm Calm - N/A   Clear
5:25 AM 30.2°F 28.4°F 93% 30.09 in 1.8 miles Calm Calm - N/A   Clear
5:37 AM 30.2°F 28.4°F 93% 30.09 in 0.5 miles Calm Calm - N/A Fog Light Freezing Fog
5:49 AM 30.2°F 28.4°F 93% 30.09 in 1.5 miles Calm Calm - N/A   Clear
5:52 AM 30.2°F 28.4°F 93% 30.09 in 3.0 miles Calm Calm - N/A   Clear
5:54 AM 30.9°F 28.9°F 92% 30.09 in 4.0 miles Calm Calm - N/A   Clear
6:54 AM 30.9°F 28.9°F 92% 30.08 in 2.0 miles SE 3.5 mph - N/A   Clear
7:01 AM 30.2°F 28.4°F 93% 30.07 in 2.0 miles Calm Calm - N/A   Partly Cloudy
7:40 AM 32.0°F 30.2°F 93% 30.06 in 2.0 miles Calm Calm - N/A   Mostly Cloudy
7:54 AM 35.1°F 33.1°F 92% 30.06 in 2.0 miles Calm Calm - N/A   Overcast
8:08 AM 35.6°F 33.8°F 93% 30.05 in 2.0 miles Calm Calm - N/A   Overcast
8:38 AM 37.4°F 35.6°F 93% 30.05 in 2.0 miles Calm Calm - N/A   Scattered Clouds
8:51 AM 37.4°F 37.4°F 100% 30.05 in 1.0 miles Calm Calm - N/A   Mist
8:54 AM 37.9°F 37.0°F 97% 30.05 in 0.8 miles Calm Calm - N/A   Mist
9:04 AM 39.2°F 37.4°F 93% 30.05 in 1.2 miles Calm Calm - N/A   Scattered Clouds
9:27 AM 41.0°F 39.2°F 93% 30.04 in 2.0 miles Calm Calm - N/A   Clear
9:43 AM 42.8°F 39.2°F 87% 30.03 in 4.0 miles ESE 3.5 mph - N/A   Clear
9:54 AM 45.0°F 41.0°F 86% 30.03 in 4.0 miles Calm Calm - N/A   Clear
10:54 AM 50.0°F 41.0°F 71% 29.99 in 8.0 miles SW 6.9 mph - N/A   Clear
11:54 AM 53.1°F 39.9°F 61% 29.95 in 10.0 miles SW 9.2 mph - N/A   Clear
12:54 PM 55.0°F 39.0°F 55% 29.91 in 10.0 miles SW 9.2 mph - N/A   Clear
1:54 PM 55.9°F 36.0°F 47% 29.87 in 10.0 miles SW 8.1 mph - N/A   Clear
2:54 PM 57.0°F 36.0°F 45% 29.83 in 10.0 miles Variable 4.6 mph - N/A   Clear
3:54 PM 55.0°F 37.0°F 51% 29.81 in 10.0 miles SSW 5.8 mph - N/A   Clear
4:54 PM 54.0°F 36.0°F 51% 29.81 in 10.0 miles SW 5.8 mph - N/A   Clear
5:54 PM 53.1°F 39.0°F 59% 29.80 in 10.0 miles SW 5.8 mph - N/A   Overcast
6:54 PM 53.1°F 39.9°F 61% 29.80 in 10.0 miles SW 8.1 mph - N/A   Overcast
7:54 PM 51.1°F 39.9°F 66% 29.78 in 9.0 miles SSW 3.5 mph - 0.00 in Rain Light Rain
8:54 PM 50.0°F 42.1°F 74% 29.76 in 10.0 miles Calm Calm - 0.00 in Rain Light Rain
9:54 PM 48.9°F 43.0°F 80% 29.75 in 10.0 miles SSW 4.6 mph - 0.00 in   Overcast
10:54 PM 50.0°F 42.1°F 74% 29.74 in 10.0 miles WSW 5.8 mph - N/A   Overcast
11:54 PM 52.0°F 30.9°F 45% 29.74 in 10.0 miles WNW 13.8 mph 23.0 mph N/A   Overcast
Astronomy
Sunrise:06:54 AM (EST) Moon Rise:01:51 PM (EST)11/23
Sunset:04:37 PM (EST) Moon Set:02:11 AM (EST)11/23
Moon Phase
Nov. 23 Nov. 28 Dec. 06 Dec. 13 Dec. 20

Copyright © 2014 The Weather Underground, Inc.